Location: Schommer Observatory
(40.5200°N, 74.4500°W)
Time: 11:04:54
(UTC-04:00)

Tiangong 2 - Visible Passes

Search period start: 20 March 2019 00:00
Search period end: 30 March 2019 00:00
Orbit: 379 x 390 km, 42.8° (Epoch: 19 March)

Date Brightness Start Highest point End Pass type
(mag) Time Alt. Az. Time Alt. Az. Time Alt. Az.
20 Mar 1.0 05:40:31 40° WNW 05:41:31 86° NNE 05:44:42 10° ESE visible
21 Mar 3.6 04:43:55 21° E 04:43:55 21° E 04:45:10 10° E visible
21 Mar 1.8 06:16:09 13° W 06:18:41 38° SSW 06:21:40 10° SE visible
22 Mar 1.3 05:19:39 56° SSE 05:19:39 56° SSE 05:22:24 10° ESE visible
23 Mar 2.5 05:55:31 20° SW 05:56:18 22° SSW 05:58:51 10° SSE visible
24 Mar 3.7 04:59:17 14° SE 04:59:17 14° SE 04:59:54 10° SE visible
28 Mar 3.7 20:43:57 10° S 20:43:58 10° S 20:43:58 10° S visible
29 Mar 3.7 21:19:49 10° SW 21:20:19 14° SW 21:20:19 14° SW visible
